Location: Newark
(44.9000°N, 9.6000°E)
Time: 04:06:53
(UTC+00:00)

ISS - Visible Passes

Search period start: 18 January 2020 00:00
Search period end: 28 January 2020 00:00
Orbit: 415 x 421 km, 51.6° (Epoch: 18 January)

Date Brightness Start Highest point End Pass type
(mag) Time Alt. Az. Time Alt. Az. Time Alt. Az.
19 Jan -1.5 18:11:20 10° SSW 18:12:28 17° S 18:12:28 17° S visible
20 Jan -1.7 17:24:20 10° SSE 17:26:16 15° SE 17:26:50 14° ESE visible
20 Jan -0.7 18:59:15 10° WSW 18:59:48 14° WSW 18:59:48 14° WSW visible
21 Jan -3.2 18:11:20 10° SW 18:14:05 49° S 18:14:05 49° S visible
22 Jan -2.9 17:23:36 10° SSW 17:26:43 36° SE 17:28:17 23° E visible
22 Jan -0.8 19:00:14 10° W 19:01:13 17° W 19:01:13 17° W visible
23 Jan -3.5 18:12:03 10° WSW 18:15:21 60° NNW 18:15:21 60° NNW visible
24 Jan -3.8 17:23:58 10° WSW 17:27:21 89° NNE 17:29:24 22° ENE visible
24 Jan -0.8 19:01:26 10° WNW 19:02:20 16° WNW 19:02:20 16° WNW visible
25 Jan -2.6 18:13:08 10° W 18:16:15 34° NNW 18:16:20 34° NNW visible
26 Jan -3.0 17:24:51 10° W 17:28:06 44° NNW 17:30:18 18° NE visible
26 Jan -0.7 19:02:34 10° WNW 19:03:14 14° NW 19:03:14 14° NW visible
27 Jan -2.2 18:14:18 10° WNW 18:17:09 26° N 18:17:09 26° N visible
